Time,TemperatureF,DewpointF,PressureIn,WindDirection,WindDirectionDegrees,WindSpeedMPH,WindSpeedGustMPH,Humidity,HourlyPrecipIn,Conditions,Clouds,dailyrainin,SoftwareType,DateUTC
2013-04-09 00:02:00,51.6,44.3,29.78,ENE,59,0.0,0.0,76,0.00,,CLR,0.19,VWS V14.01,2013-04-09 04:02:00,
2013-04-09 00:07:00,51.6,44.3,29.78,ENE,59,0.0,0.0,76,0.00,,CLR,0.00,VWS V14.01,2013-04-09 04:07:00,
2013-04-09 00:13:00,51.6,44.3,29.78,ENE,59,0.0,0.0,76,0.00,,CLR,0.00,VWS V14.01,2013-04-09 04:13:00,
2013-04-09 00:17:00,51.4,44.1,29.79,ENE,61,0.0,0.0,76,0.00,,CLR,0.00,VWS V14.01,2013-04-09 04:17:00,
2013-04-09 00:22:00,51.4,44.4,29.79,ENE,64,0.0,0.0,77,0.00,,CLR,0.00,VWS V14.01,2013-04-09 04:22:00,
2013-04-09 00:27:00,51.4,44.4,29.79,ENE,64,0.0,0.0,77,0.00,,CLR,0.00,VWS V14.01,2013-04-09 04:27:00,
2013-04-09 00:32:00,51.3,44.3,29.80,ENE,64,0.0,0.0,77,0.00,,CLR,0.00,VWS V14.01,2013-04-09 04:32:00,
2013-04-09 00:37:00,51.3,44.3,29.80,ENE,64,0.0,0.0,77,0.00,,CLR,0.00,VWS V14.01,2013-04-09 04:37:00,
2013-04-09 00:42:00,51.1,44.5,29.80,ENE,64,0.0,0.0,78,0.00,,CLR,0.00,VWS V14.01,2013-04-09 04:42:00,
2013-04-09 00:47:00,51.1,44.5,29.80,ENE,64,0.0,0.0,78,0.00,,CLR,0.00,VWS V14.01,2013-04-09 04:47:00,
2013-04-09 00:52:00,51.4,44.8,29.80,ENE,64,0.0,0.0,78,0.00,,CLR,0.00,VWS V14.01,2013-04-09 04:52:00,
2013-04-09 01:02:00,51.3,44.3,29.80,ENE,65,0.0,0.0,77,0.00,,CLR,0.00,VWS V14.01,2013-04-09 05:02:00,
2013-04-09 01:07:00,51.3,44.3,29.80,ENE,64,0.0,0.0,77,0.00,,CLR,0.00,VWS V14.01,2013-04-09 05:07:00,
2013-04-09 01:17:00,51.0,44.0,29.80,ENE,64,0.0,0.0,77,0.00,,CLR,0.00,VWS V14.01,2013-04-09 05:17:00,
2013-04-09 01:22:00,50.8,44.2,29.80,ENE,64,0.0,0.0,78,0.00,,CLR,0.00,VWS V14.01,2013-04-09 05:22:00,
2013-04-09 01:27:00,50.8,44.2,29.80,ENE,64,0.0,0.0,78,0.00,,CLR,0.00,VWS V14.01,2013-04-09 05:27:00,
2013-04-09 01:37:00,50.8,44.2,29.80,ENE,65,0.0,0.0,78,0.00,,CLR,0.00,VWS V14.01,2013-04-09 05:37:00,
2013-04-09 01:47:00,50.7,44.1,29.81,ENE,65,0.0,0.0,78,0.00,,FEW045,0.00,VWS V14.01,2013-04-09 05:47:00,
2013-04-09 01:52:00,50.7,44.1,29.81,ENE,65,0.0,0.0,78,0.00,,FEW045,0.00,VWS V14.01,2013-04-09 05:52:00,
2013-04-09 01:57:00,50.7,44.1,29.81,ENE,65,0.0,0.0,78,0.00,,FEW045,0.00,VWS V14.01,2013-04-09 05:57:00,
2013-04-09 02:02:00,51.0,44.4,29.81,ENE,65,0.0,0.0,78,0.00,,FEW045,0.00,VWS V14.01,2013-04-09 06:02:00,
2013-04-09 02:07:00,51.1,44.5,29.81,ENE,66,0.0,0.0,78,0.00,,FEW045,0.00,VWS V14.01,2013-04-09 06:07:00,
2013-04-09 02:12:00,51.3,44.3,29.81,ENE,68,0.0,0.0,77,0.00,,FEW045,0.00,VWS V14.01,2013-04-09 06:12:00,
2013-04-09 02:17:00,51.3,44.7,29.81,ENE,68,0.0,0.0,78,0.00,,FEW045,0.00,VWS V14.01,2013-04-09 06:17:00,
2013-04-09 02:27:00,51.0,44.7,29.81,ENE,68,0.0,0.0,79,0.00,,FEW045,0.00,VWS V14.01,2013-04-09 06:27:00,
2013-04-09 02:32:00,51.0,44.7,29.81,ENE,68,0.0,0.0,79,0.00,,FEW045,0.00,VWS V14.01,2013-04-09 06:32:00,
2013-04-09 02:42:00,50.8,44.5,29.81,ENE,75,0.0,0.0,79,0.00,,SCT046,0.00,VWS V14.01,2013-04-09 06:42:00,
2013-04-09 02:47:00,51.0,44.7,29.80,East,86,0.0,0.0,79,0.00,,SCT046,0.00,VWS V14.01,2013-04-09 06:47:00,
2013-04-09 02:52:00,51.0,44.4,29.80,East,88,0.0,0.0,78,0.00,,SCT046,0.00,VWS V14.01,2013-04-09 06:52:00,
2013-04-09 02:57:00,50.8,44.5,29.80,East,88,0.0,0.0,79,0.00,,SCT046,0.00,VWS V14.01,2013-04-09 06:57:00,
2013-04-09 03:07:00,50.4,44.1,29.80,East,88,0.0,0.0,79,0.00,,SCT046,0.00,VWS V14.01,2013-04-09 07:07:00,
2013-04-09 03:12:00,50.4,44.5,29.80,East,88,0.0,0.0,80,0.00,,SCT046,0.00,VWS V14.01,2013-04-09 07:12:00,
2013-04-09 03:17:00,50.4,44.5,29.80,East,88,0.0,0.0,80,0.00,,SCT046,0.00,VWS V14.01,2013-04-09 07:17:00,
2013-04-09 03:22:00,50.7,44.8,29.80,East,88,0.0,0.0,80,0.00,,SCT046,0.00,VWS V14.01,2013-04-09 07:22:00,
2013-04-09 03:27:00,51.0,44.7,29.80,East,88,0.0,0.0,79,0.00,,SCT046,0.00,VWS V14.01,2013-04-09 07:27:00,
2013-04-09 03:37:00,51.6,44.6,29.80,ESE,104,0.0,0.0,77,0.00,,SCT046,0.00,VWS V14.01,2013-04-09 07:37:00,
2013-04-09 03:42:00,51.9,44.2,29.80,ESE,114,0.0,0.0,75,0.00,,BKN120,0.00,VWS V14.01,2013-04-09 07:42:00,
2013-04-09 03:47:00,51.9,44.2,29.79,ESE,106,0.0,0.0,75,0.00,,BKN120,0.00,VWS V14.01,2013-04-09 07:47:00,
2013-04-09 03:57:00,52.2,44.2,29.79,East,80,0.0,0.0,74,0.00,,BKN120,0.00,VWS V14.01,2013-04-09 07:57:00,
2013-04-09 04:02:00,52.2,43.8,29.79,East,88,0.0,0.0,73,0.00,,BKN120,0.00,VWS V14.01,2013-04-09 08:02:00,
2013-04-09 04:07:00,51.9,43.9,29.79,ENE,76,0.0,0.0,74,0.00,,BKN120,0.00,VWS V14.01,2013-04-09 08:07:00,
2013-04-09 04:12:00,51.7,43.7,29.79,ENE,76,0.0,0.0,74,0.00,,BKN120,0.00,VWS V14.01,2013-04-09 08:12:00,
2013-04-09 04:17:00,51.7,44.0,29.79,ENE,78,0.0,0.0,75,0.00,,BKN120,0.00,VWS V14.01,2013-04-09 08:17:00,
2013-04-09 04:27:00,51.4,43.8,29.79,East,79,0.0,0.0,75,0.00,,BKN120,0.00,VWS V14.01,2013-04-09 08:27:00,
2013-04-09 04:32:00,51.6,44.0,29.80,East,80,0.0,0.0,75,0.00,,BKN120,0.00,VWS V14.01,2013-04-09 08:32:00,
2013-04-09 04:42:00,51.3,43.7,29.80,East,80,0.0,0.0,75,0.00,,OVC030,0.00,VWS V14.01,2013-04-09 08:42:00,
2013-04-09 04:47:00,51.3,43.7,29.80,East,83,0.0,0.0,75,0.00,,OVC030,0.00,VWS V14.01,2013-04-09 08:47:00,
2013-04-09 04:52:00,51.7,43.3,29.80,ESE,116,0.0,0.0,73,0.00,,OVC030,0.00,VWS V14.01,2013-04-09 08:52:00,
2013-04-09 04:57:00,52.0,43.6,29.80,ESE,117,0.0,0.0,73,0.00,,OVC030,0.00,VWS V14.01,2013-04-09 08:57:00,
2013-04-09 05:02:00,51.9,43.5,29.79,ESE,110,0.0,0.0,73,0.00,,OVC030,0.00,VWS V14.01,2013-04-09 09:02:00,
2013-04-09 05:07:00,51.9,43.5,29.79,ESE,113,0.0,0.0,73,0.00,,OVC030,0.00,VWS V14.01,2013-04-09 09:07:00,
2013-04-09 05:12:00,52.2,43.5,29.79,ESE,113,0.0,0.0,72,0.00,,OVC030,0.00,VWS V14.01,2013-04-09 09:12:00,
2013-04-09 05:17:00,52.2,43.5,29.79,ESE,119,0.0,0.0,72,0.00,,OVC030,0.00,VWS V14.01,2013-04-09 09:17:00,
2013-04-09 05:22:00,52.3,43.5,29.79,ESE,103,0.0,0.0,72,0.00,,OVC030,0.00,VWS V14.01,2013-04-09 09:22:00,
2013-04-09 05:32:00,52.3,43.5,29.79,ESE,116,0.0,0.0,72,0.00,,OVC030,0.00,VWS V14.01,2013-04-09 09:32:00,
2013-04-09 05:37:00,52.5,43.8,29.79,ESE,117,0.0,0.0,72,0.00,,OVC030,0.00,VWS V14.01,2013-04-09 09:37:00,
2013-04-09 05:42:00,52.6,43.8,29.79,ESE,112,0.0,0.0,72,0.00,,OVC034,0.00,VWS V14.01,2013-04-09 09:42:00,
2013-04-09 05:47:00,52.8,43.7,29.79,ESE,113,0.0,0.0,71,0.00,,OVC034,0.00,VWS V14.01,2013-04-09 09:47:00,
2013-04-09 05:52:00,52.8,43.7,29.79,ESE,103,0.0,0.0,71,0.00,,OVC034,0.00,VWS V14.01,2013-04-09 09:52:00,
2013-04-09 06:02:00,52.9,43.4,29.79,ESE,106,0.0,0.0,70,0.00,,OVC034,0.00,VWS V14.01,2013-04-09 10:02:00,
2013-04-09 06:07:00,52.9,43.4,29.79,ESE,106,0.0,0.0,70,0.00,,OVC034,0.00,VWS V14.01,2013-04-09 10:07:00,
2013-04-09 06:12:00,52.9,43.4,29.79,East,99,0.0,0.0,70,0.00,,OVC034,0.00,VWS V14.01,2013-04-09 10:12:00,
2013-04-09 06:17:00,52.9,43.0,29.79,ESE,113,0.0,0.0,69,0.00,,OVC034,0.00,VWS V14.01,2013-04-09 10:17:00,
2013-04-09 06:22:00,52.9,43.0,29.79,ESE,116,0.0,0.0,69,0.00,,OVC034,0.00,VWS V14.01,2013-04-09 10:22:00,
2013-04-09 06:27:00,53.1,43.2,29.79,ESE,114,0.0,0.0,69,0.00,,OVC034,0.00,VWS V14.01,2013-04-09 10:27:00,
2013-04-09 06:32:00,53.1,43.2,29.79,ESE,116,0.0,0.0,69,0.00,,OVC034,0.00,VWS V14.01,2013-04-09 10:32:00,
2013-04-09 06:42:00,53.3,43.0,29.79,ESE,112,0.0,0.0,68,0.00,,CLR,0.00,VWS V14.01,2013-04-09 10:42:00,
2013-04-09 06:47:00,53.5,43.2,29.79,ESE,109,0.0,0.0,68,0.00,,CLR,0.00,VWS V14.01,2013-04-09 10:47:00,
2013-04-09 06:57:00,53.6,42.9,29.79,ESE,116,0.0,0.0,67,0.00,,CLR,0.00,VWS V14.01,2013-04-09 10:57:00,
2013-04-09 07:02:00,53.9,42.8,29.79,ESE,109,0.0,0.0,66,0.00,,CLR,0.00,VWS V14.01,2013-04-09 11:02:00,
2013-04-09 07:07:00,53.8,43.1,29.79,ESE,114,0.0,0.0,67,0.00,,CLR,0.00,VWS V14.01,2013-04-09 11:07:00,
2013-04-09 07:12:00,53.6,42.9,29.79,ESE,109,0.0,0.0,67,0.00,,CLR,0.00,VWS V14.01,2013-04-09 11:12:00,
2013-04-09 07:17:00,53.6,42.9,29.80,East,100,0.0,0.0,67,0.00,,CLR,0.00,VWS V14.01,2013-04-09 11:17:00,
2013-04-09 07:32:00,54.1,43.0,29.80,ESE,112,0.0,0.0,66,0.00,,CLR,0.00,VWS V14.01,2013-04-09 11:32:00,
2013-04-09 07:37:00,54.2,43.1,29.80,ESE,104,0.0,0.0,66,0.00,,CLR,0.00,VWS V14.01,2013-04-09 11:37:00,
2013-04-09 07:47:00,54.5,43.0,29.80,ESE,117,0.0,0.0,65,0.00,,CLR,0.00,VWS V14.01,2013-04-09 11:47:00,
2013-04-09 07:52:00,54.5,43.0,29.80,ESE,116,0.0,0.0,65,0.00,,CLR,0.00,VWS V14.01,2013-04-09 11:52:00,
2013-04-09 07:57:00,54.7,43.2,29.80,East,97,0.0,0.0,65,0.00,,CLR,0.00,VWS V14.01,2013-04-09 11:57:00,
2013-04-09 08:02:00,54.8,43.3,29.80,ESE,113,0.0,0.0,65,0.00,,CLR,0.00,VWS V14.01,2013-04-09 12:02:00,
2013-04-09 08:07:00,55.1,43.2,29.80,ESE,121,0.0,0.0,64,0.00,,CLR,0.00,VWS V14.01,2013-04-09 12:07:00,
2013-04-09 08:17:00,55.4,43.4,29.80,East,99,0.0,0.0,64,0.00,,CLR,0.00,VWS V14.01,2013-04-09 12:17:00,
2013-04-09 08:22:00,55.7,43.3,29.80,ESE,110,0.0,0.0,63,0.00,,CLR,0.00,VWS V14.01,2013-04-09 12:22:00,
2013-04-09 08:27:00,56.0,43.6,29.80,SE,144,0.0,0.0,63,0.00,,CLR,0.00,VWS V14.01,2013-04-09 12:27:00,
2013-04-09 08:32:00,56.5,44.1,29.80,ESE,114,0.0,0.0,63,0.00,,CLR,0.00,VWS V14.01,2013-04-09 12:32:00,
2013-04-09 08:37:00,56.7,43.8,29.80,ESE,106,0.0,0.0,62,0.00,,CLR,0.00,VWS V14.01,2013-04-09 12:37:00,
2013-04-09 08:42:00,57.0,43.7,29.80,ESE,123,0.0,0.0,61,0.00,,CLR,0.00,VWS V14.01,2013-04-09 12:42:00,
2013-04-09 08:47:00,57.2,43.9,29.79,ESE,116,0.0,0.0,61,0.00,,CLR,0.00,VWS V14.01,2013-04-09 12:47:00,
2013-04-09 08:52:00,57.3,44.0,29.79,ESE,114,0.0,0.0,61,0.00,,CLR,0.00,VWS V14.01,2013-04-09 12:52:00,
2013-04-09 08:57:00,57.3,44.4,29.79,SE,137,0.0,0.0,62,0.00,,CLR,0.00,VWS V14.01,2013-04-09 12:57:00,
2013-04-09 09:02:00,57.3,44.8,29.80,ESE,114,0.0,0.0,63,0.00,,CLR,0.00,VWS V14.01,2013-04-09 13:02:00,
2013-04-09 09:07:00,57.5,45.0,29.80,ESE,110,0.0,0.0,63,0.00,,CLR,0.00,VWS V14.01,2013-04-09 13:07:00,
2013-04-09 09:17:00,57.5,45.0,29.78,ESE,113,0.0,0.0,63,0.00,,CLR,0.00,VWS V14.01,2013-04-09 13:17:00,
2013-04-09 09:22:00,57.5,45.4,29.78,ESE,112,0.0,0.0,64,0.00,,CLR,0.00,VWS V14.01,2013-04-09 13:22:00,
2013-04-09 09:27:00,57.3,45.7,29.78,SE,141,0.0,0.0,65,0.00,,CLR,0.00,VWS V14.01,2013-04-09 13:27:00,
2013-04-09 09:37:00,57.2,46.4,29.79,ESE,123,0.0,0.0,67,0.00,,CLR,0.00,VWS V14.01,2013-04-09 13:37:00,
2013-04-09 09:42:00,57.3,46.5,29.79,ESE,109,0.0,0.0,67,0.00,,BKN055,0.00,VWS V14.01,2013-04-09 13:42:00,
2013-04-09 09:47:00,57.5,46.6,29.77,SE,128,0.0,0.0,67,0.00,,BKN055,0.00,VWS V14.01,2013-04-09 13:47:00,
2013-04-09 09:57:00,57.8,47.3,29.77,SE,145,0.0,0.0,68,0.00,,BKN055,0.00,VWS V14.01,2013-04-09 13:57:00,
2013-04-09 10:07:00,58.1,47.6,29.77,ESE,120,0.0,0.0,68,0.00,,BKN055,0.00,VWS V14.01,2013-04-09 14:07:00,
2013-04-09 10:17:00,59.0,48.5,29.76,ESE,119,0.0,0.0,68,0.00,,BKN055,0.00,VWS V14.01,2013-04-09 14:17:00,
2013-04-09 10:22:00,59.3,48.8,29.76,SE,134,0.0,0.0,68,0.00,,BKN055,0.00,VWS V14.01,2013-04-09 14:22:00,
2013-04-09 10:27:00,59.5,48.9,29.76,ESE,106,0.0,0.0,68,0.00,,BKN055,0.00,VWS V14.01,2013-04-09 14:27:00,
2013-04-09 10:37:00,59.9,49.3,29.77,SE,127,0.0,0.0,68,0.00,,BKN055,0.00,VWS V14.01,2013-04-09 14:37:00,
2013-04-09 10:47:00,59.6,49.4,29.77,SE,133,0.0,0.0,69,0.00,,OVC055,0.00,VWS V14.01,2013-04-09 14:47:00,
2013-04-09 10:52:00,59.3,49.9,29.77,ESE,123,0.0,0.0,71,0.00,,OVC055,0.00,VWS V14.01,2013-04-09 14:52:00,
2013-04-09 10:57:00,59.2,50.2,29.77,SE,124,0.0,0.0,72,0.00,,OVC055,0.00,VWS V14.01,2013-04-09 14:57:00,
2013-04-09 11:02:00,59.6,50.6,29.76,ESE,121,0.0,0.0,72,0.00,,OVC055,0.00,VWS V14.01,2013-04-09 15:02:00,
2013-04-09 11:12:00,61.2,51.0,29.76,SSE,168,0.0,0.0,69,0.00,,OVC055,0.00,VWS V14.01,2013-04-09 15:12:00,
2013-04-09 11:17:00,61.2,51.0,29.76,ESE,120,0.0,0.0,69,0.00,,OVC055,0.00,VWS V14.01,2013-04-09 15:17:00,
2013-04-09 11:27:00,63.1,52.0,29.76,SSE,162,0.0,0.0,67,0.00,,OVC055,0.00,VWS V14.01,2013-04-09 15:27:00,
2013-04-09 11:32:00,64.2,52.2,29.75,ESE,109,0.0,0.0,65,0.00,,OVC055,0.00,VWS V14.01,2013-04-09 15:32:00,
2013-04-09 11:42:00,64.3,51.9,29.75,SSE,162,0.0,0.0,64,0.00,,BKN095,0.00,VWS V14.01,2013-04-09 15:42:00,
2013-04-09 11:47:00,64.5,52.5,29.74,ESE,114,0.0,0.0,65,0.00,,BKN095,0.00,VWS V14.01,2013-04-09 15:47:00,
2013-04-09 11:52:00,65.5,53.0,29.74,SE,138,0.0,0.0,64,0.00,,BKN095,0.00,VWS V14.01,2013-04-09 15:52:00,
2013-04-09 12:02:00,68.6,53.2,29.73,SE,140,0.0,0.0,58,0.00,,BKN095,0.00,VWS V14.01,2013-04-09 16:02:00,
2013-04-09 12:07:00,69.3,53.9,29.73,SE,128,0.0,0.0,58,0.00,,BKN095,0.00,VWS V14.01,2013-04-09 16:07:00,
2013-04-09 12:12:00,69.9,54.0,29.73,SSE,147,0.0,0.0,57,0.00,,BKN095,0.00,VWS V14.01,2013-04-09 16:12:00,
2013-04-09 12:17:00,71.1,54.6,29.72,SE,124,0.0,0.0,56,0.00,,BKN095,0.00,VWS V14.01,2013-04-09 16:17:00,
2013-04-09 12:22:00,72.0,55.5,29.72,SE,138,0.0,0.0,56,0.00,,BKN095,0.00,VWS V14.01,2013-04-09 16:22:00,
2013-04-09 12:27:00,71.8,55.3,29.72,SSE,150,0.0,0.0,56,0.00,,BKN095,0.00,VWS V14.01,2013-04-09 16:27:00,
2013-04-09 12:32:00,71.5,55.0,29.71,South,191,0.0,0.0,56,0.00,,BKN095,0.00,VWS V14.01,2013-04-09 16:32:00,
2013-04-09 12:37:00,71.1,55.6,29.71,SSE,152,0.0,0.0,58,0.00,,BKN095,0.00,VWS V14.01,2013-04-09 16:37:00,
2013-04-09 12:47:00,72.3,55.7,29.70,SSE,165,0.0,0.0,56,0.00,,-RA,0.00,VWS V14.01,2013-04-09 16:47:00,
2013-04-09 12:57:00,73.9,56.7,29.70,SSE,164,0.0,0.0,55,0.00,,-RA,0.00,VWS V14.01,2013-04-09 16:57:00,
2013-04-09 13:07:00,73.3,56.7,29.69,South,186,0.0,0.0,56,0.00,,-RA,0.00,VWS V14.01,2013-04-09 17:07:00,
2013-04-09 13:12:00,73.2,57.1,29.69,SW,229,0.0,0.0,57,0.00,,-RA,0.00,VWS V14.01,2013-04-09 17:12:00,
2013-04-09 13:17:00,72.8,57.2,29.68,WSW,237,0.0,0.0,58,0.00,,-RA,0.00,VWS V14.01,2013-04-09 17:17:00,
2013-04-09 13:27:00,73.0,56.9,29.68,SSW,192,0.0,0.0,57,0.00,,-RA,0.00,VWS V14.01,2013-04-09 17:27:00,
2013-04-09 13:32:00,73.7,57.0,29.68,SSW,208,0.0,0.0,56,0.00,,-RA,0.00,VWS V14.01,2013-04-09 17:32:00,
2013-04-09 13:37:00,74.0,56.8,29.68,SSW,193,0.0,0.0,55,0.00,,-RA,0.00,VWS V14.01,2013-04-09 17:37:00,
2013-04-09 13:42:00,73.7,56.5,29.68,SSW,192,0.0,0.0,55,0.00,,OVC100,0.00,VWS V14.01,2013-04-09 17:42:00,
2013-04-09 13:47:00,73.9,57.7,29.67,South,176,0.0,0.0,57,0.00,,OVC100,0.00,VWS V14.01,2013-04-09 17:47:00,
2013-04-09 13:57:00,73.9,56.7,29.67,SSW,192,0.0,0.0,55,0.00,,OVC100,0.00,VWS V14.01,2013-04-09 17:57:00,
2013-04-09 14:02:00,74.4,57.7,29.67,SW,216,0.0,0.0,56,0.00,,OVC100,0.00,VWS V14.01,2013-04-09 18:02:00,
2013-04-09 14:12:00,75.3,56.5,29.67,SW,217,0.0,0.0,52,0.00,,OVC100,0.00,VWS V14.01,2013-04-09 18:12:00,
2013-04-09 14:17:00,75.1,56.3,29.66,SSW,195,0.0,0.0,52,0.00,,OVC100,0.00,VWS V14.01,2013-04-09 18:17:00,
2013-04-09 14:27:00,75.4,56.0,29.66,SW,222,0.0,0.0,51,0.00,,OVC100,0.00,VWS V14.01,2013-04-09 18:27:00,
2013-04-09 14:32:00,75.8,55.9,29.66,SW,222,0.0,0.0,50,0.00,,OVC100,0.00,VWS V14.01,2013-04-09 18:32:00,
2013-04-09 14:37:00,75.6,56.2,29.66,SSW,195,0.0,0.0,51,0.00,,OVC100,0.00,VWS V14.01,2013-04-09 18:37:00,
2013-04-09 14:42:00,75.8,55.9,29.66,SSW,199,0.0,0.0,50,0.00,,OVC100,0.00,VWS V14.01,2013-04-09 18:42:00,
2013-04-09 14:52:00,75.4,56.0,29.66,SW,227,0.0,0.0,51,0.00,,OVC100,0.00,VWS V14.01,2013-04-09 18:52:00,
2013-04-09 14:57:00,75.4,55.5,29.66,South,189,0.0,0.0,50,0.00,,OVC100,0.00,VWS V14.01,2013-04-09 18:57:00,
2013-04-09 15:07:00,74.9,56.1,29.66,South,191,0.0,0.0,52,0.00,,OVC100,0.00,VWS V14.01,2013-04-09 19:07:00,
2013-04-09 15:12:00,75.3,55.4,29.66,SW,215,0.0,0.0,50,0.00,,OVC100,0.00,VWS V14.01,2013-04-09 19:12:00,
2013-04-09 15:17:00,75.4,56.0,29.67,WSW,241,0.0,0.0,51,0.00,,OVC100,0.00,VWS V14.01,2013-04-09 19:17:00,
2013-04-09 15:22:00,75.6,55.7,29.67,SSW,210,0.0,0.0,50,0.00,,OVC100,0.00,VWS V14.01,2013-04-09 19:22:00,
2013-04-09 15:32:00,75.4,55.5,29.66,SW,217,0.0,0.0,50,0.00,,OVC100,0.00,VWS V14.01,2013-04-09 19:32:00,
2013-04-09 15:37:00,75.4,55.5,29.66,SW,229,0.0,0.0,50,0.00,,OVC100,0.00,VWS V14.01,2013-04-09 19:37:00,
2013-04-09 15:42:00,75.6,55.7,29.66,SW,230,0.0,0.0,50,0.00,,BKN085,0.00,VWS V14.01,2013-04-09 19:42:00,
2013-04-09 15:47:00,75.4,55.5,29.66,South,172,0.0,0.0,50,0.00,,BKN085,0.00,VWS V14.01,2013-04-09 19:47:00,
2013-04-09 15:52:00,75.3,55.9,29.66,SW,215,0.0,0.0,51,0.00,,BKN085,0.00,VWS V14.01,2013-04-09 19:52:00,
2013-04-09 16:02:00,75.1,55.2,29.67,South,191,0.0,0.0,50,0.00,,BKN085,0.00,VWS V14.01,2013-04-09 20:02:00,
2013-04-09 16:12:00,75.3,54.8,29.67,SSW,209,0.0,0.0,49,0.00,,BKN085,0.00,VWS V14.01,2013-04-09 20:12:00,
2013-04-09 16:17:00,75.3,55.4,29.67,SW,229,0.0,0.0,50,0.00,,BKN085,0.00,VWS V14.01,2013-04-09 20:17:00,
2013-04-09 16:22:00,75.4,54.9,29.67,SW,222,0.0,0.0,49,0.00,,BKN085,0.00,VWS V14.01,2013-04-09 20:22:00,
2013-04-09 16:27:00,75.8,54.7,29.67,SW,223,0.0,0.0,48,0.00,,BKN085,0.00,VWS V14.01,2013-04-09 20:27:00,
2013-04-09 16:37:00,75.6,54.5,29.66,SSW,206,0.0,0.0,48,0.00,,BKN085,0.00,VWS V14.01,2013-04-09 20:37:00,
2013-04-09 16:52:00,75.8,54.7,29.66,SW,223,0.0,0.0,48,0.00,,OVC065,0.00,VWS V14.01,2013-04-09 20:52:00,
2013-04-09 16:57:00,76.1,53.8,29.66,SW,222,0.0,0.0,46,0.00,,OVC065,0.00,VWS V14.01,2013-04-09 20:57:00,
2013-04-09 17:02:00,76.3,54.0,29.65,WSW,253,0.0,0.0,46,0.00,,OVC065,0.00,VWS V14.01,2013-04-09 21:02:00,
2013-04-09 17:07:00,76.3,54.6,29.65,SSW,205,0.0,0.0,47,0.00,,OVC065,0.00,VWS V14.01,2013-04-09 21:07:00,
2013-04-09 17:17:00,77.2,54.2,29.65,WSW,240,0.0,0.0,45,0.00,,OVC065,0.00,VWS V14.01,2013-04-09 21:17:00,
2013-04-09 17:22:00,76.7,54.4,29.65,West,263,0.0,0.0,46,0.00,,OVC065,0.00,VWS V14.01,2013-04-09 21:22:00,
2013-04-09 17:32:00,76.5,53.6,29.66,South,188,0.0,0.0,45,0.00,,OVC065,0.00,VWS V14.01,2013-04-09 21:32:00,
2013-04-09 17:42:00,76.1,53.8,29.66,SW,232,0.0,0.0,46,0.00,,BKN100,0.00,VWS V14.01,2013-04-09 21:42:00,
2013-04-09 17:47:00,76.0,53.2,29.66,WSW,244,0.0,0.0,45,0.00,,BKN100,0.00,VWS V14.01,2013-04-09 21:47:00,
2013-04-09 17:52:00,76.0,53.8,29.66,SW,222,0.0,0.0,46,0.00,,BKN100,0.00,VWS V14.01,2013-04-09 21:52:00,
2013-04-09 17:57:00,75.8,53.6,29.66,SW,227,0.0,0.0,46,0.00,,BKN100,0.00,VWS V14.01,2013-04-09 21:57:00,
2013-04-09 18:07:00,75.8,54.2,29.66,SW,223,0.0,0.0,47,0.00,,BKN100,0.00,VWS V14.01,2013-04-09 22:07:00,
2013-04-09 18:17:00,75.6,54.0,29.66,SW,220,0.0,0.0,47,0.00,,BKN100,0.00,VWS V14.01,2013-04-09 22:17:00,
2013-04-09 18:27:00,75.4,54.9,29.66,SW,227,0.0,0.0,49,0.00,,BKN100,0.00,VWS V14.01,2013-04-09 22:27:00,
2013-04-09 18:37:00,75.4,54.4,29.66,SSW,203,0.0,0.0,48,0.00,,BKN100,0.00,VWS V14.01,2013-04-09 22:37:00,
2013-04-09 18:47:00,75.1,54.7,29.67,SW,224,0.0,0.0,49,0.00,,OVC055,0.00,VWS V14.01,2013-04-09 22:47:00,
2013-04-09 18:52:00,74.9,55.0,29.67,SW,232,0.0,0.0,50,0.00,,OVC055,0.00,VWS V14.01,2013-04-09 22:52:00,
2013-04-09 18:57:00,74.6,54.8,29.67,SW,227,0.0,0.0,50,0.00,,OVC055,0.00,VWS V14.01,2013-04-09 22:57:00,
2013-04-09 19:07:00,74.0,55.3,29.68,SW,227,0.0,0.0,52,0.00,,OVC055,0.00,VWS V14.01,2013-04-09 23:07:00,
2013-04-09 19:12:00,73.9,56.2,29.68,SW,224,0.0,0.0,54,0.00,,OVC055,0.00,VWS V14.01,2013-04-09 23:12:00,
2013-04-09 19:17:00,73.5,56.4,29.68,SW,219,0.0,0.0,55,0.00,,OVC055,0.00,VWS V14.01,2013-04-09 23:17:00,
2013-04-09 19:22:00,73.3,56.2,29.68,WSW,237,0.0,0.0,55,0.00,,OVC055,0.00,VWS V14.01,2013-04-09 23:22:00,
2013-04-09 19:27:00,73.2,56.6,29.68,SW,232,0.0,0.0,56,0.00,,OVC055,0.00,VWS V14.01,2013-04-09 23:27:00,
2013-04-09 19:32:00,73.0,56.4,29.68,SW,234,0.0,0.0,56,0.00,,OVC055,0.00,VWS V14.01,2013-04-09 23:32:00,
2013-04-09 19:37:00,72.8,56.7,29.68,WSW,243,0.0,0.0,57,0.00,,OVC055,0.00,VWS V14.01,2013-04-09 23:37:00,
2013-04-09 19:42:00,72.7,57.1,29.68,WSW,237,0.0,0.0,58,0.00,,OVC049,0.00,VWS V14.01,2013-04-09 23:42:00,
2013-04-09 19:52:00,72.1,57.0,29.69,SW,230,0.0,0.0,59,0.00,,OVC049,0.00,VWS V14.01,2013-04-09 23:52:00,
2013-04-09 19:57:00,72.0,56.9,29.69,SW,224,0.0,0.0,59,0.00,,OVC049,0.00,VWS V14.01,2013-04-09 23:57:00,
2013-04-09 20:02:00,71.8,57.2,29.69,SW,230,0.0,0.0,60,0.00,,OVC049,0.00,VWS V14.01,2013-04-10 00:02:00,
2013-04-09 20:12:00,71.5,57.4,29.69,SSW,213,0.0,0.0,61,0.00,,OVC049,0.00,VWS V14.01,2013-04-10 00:12:00,
2013-04-09 20:17:00,71.5,57.4,29.69,SSW,209,0.0,0.0,61,0.00,,OVC049,0.00,VWS V14.01,2013-04-10 00:17:00,
2013-04-09 20:22:00,71.5,57.4,29.69,SW,229,0.0,0.0,61,0.00,,OVC049,0.00,VWS V14.01,2013-04-10 00:22:00,
2013-04-09 20:27:00,71.3,57.2,29.69,SSW,200,0.0,0.0,61,0.00,,OVC049,0.00,VWS V14.01,2013-04-10 00:27:00,
2013-04-09 20:32:00,71.3,57.2,29.69,SSW,213,0.0,0.0,61,0.00,,OVC049,0.00,VWS V14.01,2013-04-10 00:32:00,
2013-04-09 20:37:00,71.1,57.4,29.69,WSW,253,0.0,0.0,62,0.00,,OVC049,0.00,VWS V14.01,2013-04-10 00:37:00,
2013-04-09 20:47:00,70.9,57.2,29.69,SW,217,0.0,0.0,62,0.00,,OVC100,0.00,VWS V14.01,2013-04-10 00:47:00,
2013-04-09 20:52:00,70.9,57.2,29.69,South,182,0.0,0.0,62,0.00,,OVC100,0.00,VWS V14.01,2013-04-10 00:52:00,
2013-04-09 20:57:00,70.9,57.2,29.69,WSW,248,0.0,0.0,62,0.00,,OVC100,0.00,VWS V14.01,2013-04-10 00:57:00,
2013-04-09 21:02:00,71.1,57.4,29.68,SW,224,0.0,0.0,62,0.00,,OVC100,0.00,VWS V14.01,2013-04-10 01:02:00,
2013-04-09 21:07:00,71.1,57.4,29.68,SW,222,0.0,0.0,62,0.00,,OVC100,0.00,VWS V14.01,2013-04-10 01:07:00,
2013-04-09 21:17:00,70.6,57.4,29.69,South,181,0.0,0.0,63,0.00,,OVC100,0.00,VWS V14.01,2013-04-10 01:17:00,
2013-04-09 21:22:00,70.4,57.7,29.69,SSW,205,0.0,0.0,64,0.00,,OVC100,0.00,VWS V14.01,2013-04-10 01:22:00,
2013-04-09 21:27:00,70.3,57.6,29.69,SSW,212,0.0,0.0,64,0.00,,OVC100,0.00,VWS V14.01,2013-04-10 01:27:00,
2013-04-09 21:32:00,70.1,57.8,29.69,SSW,195,0.0,0.0,65,0.00,,OVC100,0.00,VWS V14.01,2013-04-10 01:32:00,
2013-04-09 21:42:00,69.8,57.5,29.69,SSW,196,0.0,0.0,65,0.00,,OVC110,0.00,VWS V14.01,2013-04-10 01:42:00,
2013-04-09 21:47:00,69.6,57.8,29.69,SSW,192,0.0,0.0,66,0.00,,OVC110,0.00,VWS V14.01,2013-04-10 01:47:00,
2013-04-09 21:57:00,69.4,57.6,29.69,SSW,196,0.0,0.0,66,0.00,,OVC110,0.00,VWS V14.01,2013-04-10 01:57:00,
2013-04-09 22:07:00,69.9,57.6,29.69,SSW,209,0.0,0.0,65,0.00,,OVC110,0.00,VWS V14.01,2013-04-10 02:07:00,
2013-04-09 22:17:00,70.1,57.8,29.69,SSW,196,0.0,0.0,65,0.00,,OVC110,0.00,VWS V14.01,2013-04-10 02:17:00,
2013-04-09 22:27:00,69.8,57.5,29.69,SW,216,0.0,0.0,65,0.00,,OVC110,0.00,VWS V14.01,2013-04-10 02:27:00,
2013-04-09 22:32:00,69.8,57.5,29.70,SSW,213,0.0,0.0,65,0.00,,OVC110,0.00,VWS V14.01,2013-04-10 02:32:00,
2013-04-09 22:37:00,69.8,57.5,29.70,SW,230,0.0,0.0,65,0.00,,OVC110,0.00,VWS V14.01,2013-04-10 02:37:00,
2013-04-09 22:47:00,69.6,57.8,29.70,SW,229,0.0,0.0,66,0.00,,OVC110,0.00,VWS V14.01,2013-04-10 02:47:00,
2013-04-09 22:52:00,69.4,57.6,29.70,NW,306,0.0,0.0,66,0.00,,OVC110,0.00,VWS V14.01,2013-04-10 02:52:00,
2013-04-09 22:57:00,69.1,57.7,29.70,NW,306,0.0,0.0,67,0.00,,OVC110,0.00,VWS V14.01,2013-04-10 02:57:00,
2013-04-09 23:02:00,68.9,57.9,29.70,SW,217,0.0,0.0,68,0.00,,OVC110,0.00,VWS V14.01,2013-04-10 03:02:00,
2013-04-09 23:12:00,69.1,57.7,29.70,West,268,0.0,0.0,67,0.00,,OVC110,0.00,VWS V14.01,2013-04-10 03:12:00,
2013-04-09 23:17:00,68.9,57.5,29.69,West,261,0.0,0.0,67,0.00,,OVC110,0.00,VWS V14.01,2013-04-10 03:17:00,
2013-04-09 23:22:00,68.9,57.9,29.69,SW,220,0.0,0.0,68,0.00,,OVC110,0.00,VWS V14.01,2013-04-10 03:22:00,
2013-04-09 23:27:00,68.8,57.8,29.69,SW,220,0.0,0.0,68,0.00,,OVC110,0.00,VWS V14.01,2013-04-10 03:27:00,
2013-04-09 23:42:00,68.4,57.8,29.69,SW,222,0.0,0.0,69,0.00,,OVC050,0.00,VWS V14.01,2013-04-10 03:42:00,
2013-04-09 23:47:00,68.3,57.8,29.69,SW,222,0.0,0.0,69,0.00,,OVC050,0.00,VWS V14.01,2013-04-10 03:47:00,
2013-04-09 23:57:00,66.6,56.1,29.69,NNE,31,0.0,0.0,69,0.00,,OVC050,0.00,VWS V14.01,2013-04-10 03:57:00,